Erneuerung der Klassenberechtigung SEP SP

Flugschule

Flugschule

Wir bieten eine professionelle und umfassende Ausbildung.

Flugwetter Augsburg

[Quelle: ADDS]
METAR
EDMA 240620Z 25006KT 6000 RA BKN009 15/14 Q1008 =
EDMA 240500Z 2406/2415 22005KT 9999 SCT025 PROB30 TEMPO 2406/2409 BKN012 BECMG 2409/2411 29008KT
TAF
EDMA 240500Z 2406/2415 22005KT 9999 SCT025 PROB30 TEMPO 2406/2409 BKN012 BECMG 2409/2411 29008KT =

Kontakt

Erneuerung der Klassenberechtigung SEP SP

Auffrischungsschulung

Bei abgelaufenen Klassen-, Muster- und Instrumentenflugberechtigungen wird gemäß AMC1 FCL.625(c) und AMC1 FCL-740(b)(1) Auffrischungstraining vor der Prüfung notwendig.

Diese Tabelle soll einen Überblick darüber geben, was die Mindestanforderungen laut EASA Teil FCL sind.

Ablauf

Erneuerung Klassen- und Muster- berechtigungen

Erneuerung Instrumentenflug- berechtigung

Kombination (beides abgelaufen)
< 3 Monate nicht vorgeschrieben nicht vorgeschrieben nicht vorgeschrieben
> 3 Monate & < 1 Jahr 2 Trainingseinheiten 1 Trainingseinheit 3 Trainingseinheiten
> 1 Jahr & < 3 Jahre 3 Trainingseinheiten 3 Trainingseinheiten 6 Trainingseinheiten
> 3 Jahre & < 7 Jahre Neuerwerb (SEP 5h) 3 Trainingseinheiten 8 Trainingseinheiten
> 7 Jahre Neuerwerb (SEP 5h) Neuerwerb Neuerwerb